FW9102 Weather Reports


time (UTC)temp
F
wind
direction
speed
knots
gust
knots
rain 1hr
in
rain 24hr
in
rain mn
in
humidity
%
barometer
mb
20260510204350 59 252 2.6 2.6 0.00 0.01 0.01 45 1358.1
20260510203847 59 112 4.3 7.8 0.00 0.01 0.01 44 1357.7
20260510203345 59 155 9.6 15.6 0.00 0.01 0.01 45 1357.7
20260510202839 59 113 4.3 21.7 0.00 0.01 0.01 45 1357.6
20260510202335 59 27 7.0 21.7 0.00 0.01 0.01 44 1357.4
20260510201832 61 108 5.2 20.0 0.00 0.01 0.01 44 1357.3
20260510201329 61 86 7.8 28.7 0.00 0.01 0.01 44 1357.2
20260510200826 59 317 5.2 17.4 0.00 0.01 0.01 48 1357.2
20260510200324 57 349 3.5 13.9 0.00 0.01 0.01 51 1357.2
20260510195819 56 113 4.3 13.9 0.05 0.01 0.01 59 1357.1
20260510195316 57 343 5.2 13.9 0.02 0.00 0.00 55 1357.3
20260510194811 59 212 1.7 9.6 0.00 0.00 0.00 50 1357.4
20260510194308 60 16 15.6 20.0 0.00 0.00 0.00 43 1357.3
20260510193803 62 344 1.7 11.3 0.00 0.00 0.00 39 1357.1
20260510193258 62 61 4.3 24.3 0.00 0.00 0.00 39 1357.1
20260510192754 64 32 8.7 26.1 0.00 0.00 0.00 36 1356.9
20260510192250 65 294 8.7 14.8 0.00 0.00 0.00 36 1356.9
20260510191746 65 52 0.0 23.5 0.00 0.00 0.00 35 1356.8
20260510191242 66 82 2.6 12.2 0.00 0.00 0.00 34 1356.8
20260510190741 63 247 4.3 13.9 0.00 0.00 0.00 36 1356.9
20260510190237 64 169 4.3 17.4 0.00 0.00 0.00 34 1357.1
20260510185733 66 186 3.5 15.6 0.00 0.00 0.00 33 1356.7
20260510185232 66 176 3.5 11.3 0.00 0.00 0.00 33 1356.9
20260510184728 65 270 4.3 22.6 0.00 0.00 0.00 34 1356.8
20260510184225 66 194 2.6 10.4 0.00 0.00 0.00 33 1356.8
20260510183720 64 18 6.1 15.6 0.00 0.00 0.00 35 1356.8
20260510183215 64 153 7.8 16.5 0.00 0.00 0.00 35 1356.6
20260510182712 64 263 2.6 13.0 0.00 0.00 0.00 34 1356.7
20260510182207 64 190 2.6 20.0 0.00 0.00 0.00 34 1356.8
20260510181704 64 179 13.0 17.4 0.00 0.00 0.00 35 1356.7
20260510181201 65 66 1.7 15.6 0.00 0.00 0.00 35 1356.6
20260510180657 64 12 7.8 15.6 0.00 0.00 0.00 36 1356.8
20260510180155 64 255 1.7 19.1 0.00 0.00 0.00 35 1356.9
20260510175650 65 23 5.2 15.6 0.00 0.00 0.00 34 1356.6
20260510175147 61 23 7.8 13.0 0.00 0.00 0.00 37 1356.4
20260510174644 64 233 1.7 16.5 0.00 0.00 0.00 35 1356.9
20260510174142 63 31 5.2 24.3 0.00 0.00 0.00 36 1357.2
20260510173637 64 317 4.3 15.6 0.00 0.00 0.00 35 1356.9
20260510173134 63 195 2.6 13.0 0.00 0.00 0.00 35 1357.2
20260510172629 62 354 3.5 19.1 0.00 0.00 0.00 37 1356.9
20260510172126 65 164 5.2 9.6 0.00 0.00 0.00 33 1356.9
20260510171622 63 315 1.7 11.3 0.00 0.00 0.00 34 1356.9
20260510171120 63 220 7.8 16.5 0.00 0.00 0.00 35 1356.8
20260510170616 62 123 6.1 13.9 0.00 0.00 0.00 36 1357.2
20260510170113 62 153 2.6 7.8 0.00 0.00 0.00 36 1356.9
20260510165608 61 71 2.6 13.9 0.00 0.00 0.00 37 1356.8
20260510165104 61 220 2.6 9.6 0.00 0.00 0.00 37 1357.1
20260510164602 60 119 3.5 17.4 0.00 0.00 0.00 39 1357.1
20260510164058 60 43 6.1 20.9 0.00 0.00 0.00 39 1356.8
20260510163554 60 214 9.6 17.4 0.00 0.00 0.00 40 1356.6
20260510163051 60 342 4.3 9.6 0.00 0.00 0.00 41 1356.6
20260510162545 59 101 8.7 13.0 0.00 0.00 0.00 41 1356.6
20260510162042 59 351 8.7 14.8 0.00 0.00 0.00 42 1356.9
20260510161538 59 131 2.6 16.5 0.00 0.00 0.00 42 1356.7
20260510161035 59 80 0.0 12.2 0.00 0.00 0.00 42 1356.6
20260510160532 59 165 4.3 11.3 0.00 0.00 0.00 43 1356.6
20260510160031 58 191 0.0 17.4 0.00 0.00 0.00 42 1356.7
20260510155528 57 126 7.8 14.8 0.00 0.00 0.00 45 1356.6
20260510155025 57 130 5.2 18.2 0.00 0.00 0.00 45 1356.6
20260510154520 57 201 0.0 14.8 0.00 0.00 0.00 46 1356.6
20260510154015 56 180 1.7 21.7 0.00 0.00 0.00 47 1356.4
20260510153510 56 63 2.6 14.8 0.00 0.00 0.00 47 1356.4
20260510153007 56 355 3.5 9.6 0.00 0.00 0.00 47 1356.4
20260510152504 56 131 0.0 7.8 0.00 0.00 0.00 47 1356.6
20260510152001 56 87 6.1 9.6 0.00 0.00 0.00 47 1356.2
20260510151458 56 113 9.6 20.0 0.00 0.00 0.00 48 1356.4
20260510150955 56 165 2.6 13.0 0.00 0.00 0.00 46 1356.2
20260510150450 57 17 6.1 11.3 0.00 0.00 0.00 43 1356.1
20260510145946 59 261 2.6 9.6 0.00 0.00 0.00 38 1355.9
20260510145442 57 217 4.3 9.6 0.00 0.00 0.00 40 1355.9
20260510144939 58 28 7.8 7.8 0.00 0.00 0.00 38 1355.9
20260510144436 57 339 2.6 8.7 0.00 0.00 0.00 39 1355.9
20260510143931 58 128 1.7 7.8 0.00 0.00 0.00 39 1355.9
20260510143427 57 297 2.6 5.2 0.00 0.00 0.00 39 1355.8
20260510142925 58 195 1.7 7.8 0.00 0.00 0.00 38 1355.9
20260510142421 58 66 0.9 2.6 0.00 0.00 0.00 37 1356.1
20260510141918 56 42 5.2 7.8 0.00 0.00 0.00 40 1355.7
20260510141415 54 9 8.7 8.7 0.00 0.00 0.00 42 1355.8
20260510140912 54 86 6.1 11.3 0.00 0.00 0.00 41 1355.6
20260510140408 55 32 2.6 8.7 0.00 0.00 0.00 41 1355.8
20260510135907 53 33 7.0 13.0 0.00 0.00 0.00 43 1355.6
20260510135403 53 32 2.6 7.8 0.00 0.00 0.00 43 1355.7
20260510134901 53 29 8.7 13.9 0.00 0.00 0.00 44 1355.6
20260510134357 53 94 2.6 7.0 0.00 0.00 0.00 44 1355.4
20260510133854 52 352 0.0 6.1 0.00 0.00 0.00 44 1355.3
20260510133350 52 90 4.3 9.6 0.00 0.00 0.00 44 1355.1
20260510132845 52 86 1.7 6.1 0.00 0.00 0.00 43 1355.2
20260510132344 52 86 4.3 13.0 0.00 0.00 0.00 43 1355.3
20260510131840 52 107 2.6 9.6 0.00 0.00 0.00 43 1355.4
20260510131338 52 106 4.3 4.3 0.00 0.00 0.00 43 1355.1
20260510130834 52 237 0.9 1.7 0.00 0.00 0.00 42 1354.9
20260510130331 52 276 1.7 2.6 0.00 0.00 0.00 41 1354.7
20260510125828 52 123 3.5 6.1 0.00 0.00 0.00 41 1354.8
20260510125324 52 90 2.6 6.1 0.00 0.00 0.00 41 1354.8
20260510124821 53 37 3.5 6.1 0.00 0.00 0.00 41 1354.7
20260510124318 53 71 2.6 6.1 0.00 0.00 0.00 40 1354.4
20260510123813 52 70 4.3 7.8 0.00 0.00 0.00 40 1354.3
20260510123309 52 92 4.3 7.8 0.00 0.00 0.00 40 1354.7
20260510122806 52 56 3.5 5.2 0.00 0.00 0.00 40 1354.4
20260510122305 53 62 5.2 9.6 0.00 0.00 0.00 40 1354.3
20260510121758 53 104 6.1 10.4 0.00 0.00 0.00 40 1354.2
20260510121256 53 88 3.5 8.7 0.00 0.00 0.00 39 1354.6
20260510120753 53 25 3.5 9.6 0.00 0.00 0.00 39 1354.6
20260510120249 53 90 1.7 7.0 0.00 0.00 0.00 39 1354.3
20260510115745 53 106 7.0 7.0 0.00 0.00 0.00 38 1354.6
20260510115244 54 80 2.6 11.3 0.00 0.00 0.00 38 1354.3
20260510114738 53 285 0.0 4.3 0.00 0.00 0.00 38 1354.4
20260510114236 53 100 5.2 7.8 0.00 0.00 0.00 38 1354.4
20260510113731 53 119 3.5 5.2 0.00 0.00 0.00 38 1354.6
20260510113229 53 30 3.5 5.2 0.00 0.00 0.00 37 1354.6
20260510112725 54 171 4.3 7.8 0.00 0.00 0.00 37 1354.7
20260510112222 54 130 4.3 12.2 0.00 0.00 0.00 37 1354.4
20260510111717 54 124 3.5 7.8 0.00 0.00 0.00 38 1355.1
20260510111214 55 71 7.0 14.8 0.00 0.00 0.00 37 1354.6
20260510110709 55 124 2.6 5.2 0.00 0.00 0.00 33 1354.8
20260510110207 55 99 8.7 9.6 0.00 0.00 0.00 33 1354.7
20260510105706 55 43 4.3 9.6 0.00 0.00 0.00 33 1354.4
20260510105206 55 73 2.6 4.3 0.00 0.00 0.00 33 1354.4
20260510104704 55 71 4.3 7.0 0.00 0.00 0.00 33 1354.4
20260510104201 55 41 6.1 6.1 0.00 0.00 0.00 33 1354.3
20260510103657 56 186 0.0 3.5 0.00 0.00 0.00 32 1354.2
20260510103154 56 95 0.0 3.5 0.00 0.00 0.00 32 1354.2
20260510102654 56 24 3.5 7.8 0.00 0.00 0.00 32 1353.9
20260510102150 57 51 8.7 16.5 0.00 0.00 0.00 32 1353.9
20260510101648 56 180 4.3 14.8 0.00 0.00 0.00 31 1353.6
20260510101146 56 106 4.3 12.2 0.00 0.00 0.00 31 1353.6
20260510100642 56 98 4.3 13.0 0.00 0.00 0.00 31 1353.9
20260510100140 56 169 1.7 7.8 0.00 0.00 0.00 30 1353.7
20260510095635 56 130 3.5 11.3 0.00 0.00 0.00 30 1353.8
20260510095131 56 68 7.8 8.7 0.00 0.00 0.00 30 1354.3
20260510094629 56 135 2.6 6.1 0.00 0.00 0.00 30 1353.8
20260510094125 56 131 5.2 7.8 0.00 0.00 0.00 29 1353.4
20260510093621 57 186 0.0 8.7 0.00 0.00 0.00 29 1353.1
20260510093119 56 10 3.5 8.7 0.00 0.00 0.00 28 1352.8
20260510092615 56 206 0.0 5.2 0.00 0.00 0.00 28 1352.7
20260510092115 57 344 1.7 4.3 0.00 0.00 0.00 28 1352.6
20260510091612 57 191 4.3 10.4 0.00 0.00 0.00 27 1352.4
20260510091108 57 161 2.6 14.8 0.00 0.00 0.00 27 1352.3
20260510090605 57 108 5.2 6.1 0.00 0.00 0.00 26 1352.2
20260510090101 57 123 4.3 7.0 0.00 0.00 0.00 27 1352.2
20260510085556 57 128 4.3 7.0 0.00 0.00 0.00 27 1352.3
20260510085052 57 144 4.3 8.7 0.00 0.00 0.00 26 1351.7
20260510084548 55 144 4.3 4.3 0.00 0.00 0.00 27 1351.9
20260510084045 56 135 2.6 3.5 0.00 0.00 0.00 26 1352.1
20260510083542 57 341 3.5 5.2 0.00 0.00 0.00 26 1352.1
20260510083038 58 175 4.3 6.1 0.00 0.00 0.00 24 1351.8
20260510082535 58 90 2.6 7.8 0.00 0.00 0.00 26 1351.8
20260510082030 58 134 3.5 8.7 0.00 0.00 0.00 26 1351.7
20260510081526 58 128 7.0 9.6 0.00 0.00 0.00 27 1351.9
20260510081022 57 123 8.7 11.3 0.00 0.00 0.00 28 1351.8
20260510080521 57 114 5.2 19.1 0.00 0.00 0.00 28 1351.6
20260510080018 56 142 7.0 13.9 0.00 0.00 0.00 28 1351.7
20260510075515 53 117 2.6 3.5 0.00 0.00 0.00 27 1351.7
20260510075012 53 78 2.6 3.5 0.00 0.00 0.00 27 1351.6
20260510074510 52 123 0.9 2.6 0.00 0.00 0.00 28 1351.4
20260510074005 52 106 0.9 2.6 0.00 0.00 0.00 28 1351.7
20260510073501 52 99 2.6 3.5 0.00 0.00 0.00 28 1351.9
20260510072958 52 120 0.9 2.6 0.00 0.00 0.00 27 1351.6
20260510072454 53 121 1.7 3.5 0.00 0.00 0.00 27 1351.6
20260510071950 53 90 0.9 3.5 0.00 0.00 0.00 27 1351.8
20260510071446 53 94 1.7 2.6 0.00 0.00 0.00 26 1351.7
20260510070945 53 110 2.6 2.6 0.00 0.00 0.00 26 1351.6
20260510070442 53 103 1.7 2.6 0.00 0.00 0.00 26 1351.4
20260510065937 54 84 0.9 2.6 0.00 0.00 0.00 25 1351.6
20260510065435 55 76 2.6 3.5 0.00 0.00 0.00 25 1351.4
20260510064930 53 96 0.9 2.6 0.00 0.00 0.00 26 1351.4
20260510064428 53 69 0.0 1.7 0.00 0.00 0.00 25 1351.8
20260510063925 54 82 0.9 2.6 0.00 0.00 0.00 25 1351.7
20260510063421 55 90 0.0 5.2 0.00 0.00 0.00 24 1351.8
20260510062919 55 119 1.7 2.6 0.00 0.00 0.00 24 1351.6
20260510062414 56 110 1.7 2.6 0.00 0.00 0.00 24 1351.4
20260510061909 57 36 2.6 3.5 0.00 0.00 0.00 23 1351.8
20260510061406 57 135 1.7 3.5 0.00 0.00 0.00 22 1351.6
20260510060902 56 108 2.6 3.5 0.00 0.00 0.00 22 1351.6
20260510060359 56 73 2.6 2.6 0.00 0.00 0.00 22 1351.2
20260510055855 60 334 1.7 2.6 0.00 0.00 0.00 20 1351.3
20260510055355 60 167 5.2 9.6 0.00 0.00 0.00 19 1351.3
20260510054849 59 107 4.3 6.1 0.00 0.00 0.00 20 1350.9
20260510054344 55 121 1.7 4.3 0.00 0.00 0.00 24 1350.9
20260510053839 56 61 1.7 4.3 0.00 0.00 0.00 22 1351.2
20260510053335 55 90 2.6 2.6 0.00 0.00 0.00 23 1351.3
20260510052832 56 90 0.9 1.7 0.00 0.00 0.00 23 1351.1
20260510052327 58 94 2.6 3.5 0.00 0.00 0.00 21 1351.1
20260510051824 59 77 3.5 5.2 0.00 0.00 0.00 21 1351.1
20260510051321 59 79 1.7 3.5 0.00 0.00 0.00 21 1350.9
20260510050818 59 70 1.7 2.6 0.00 0.00 0.00 21 1351.1
20260510050314 60 74 2.6 3.5 0.00 0.00 0.00 20 1351.1
20260510045811 60 17 2.6 5.2 0.00 0.00 0.00 20 1351.4
20260510045307 60 52 2.6 5.2 0.00 0.00 0.00 20 1351.2
20260510044805 59 18 3.5 3.5 0.00 0.00 0.00 20 1351.4
20260510044302 60 40 1.7 2.6 0.00 0.00 0.00 19 1351.3
20260510043758 60 21 1.7 3.5 0.00 0.00 0.00 19 1351.4
20260510043249 60 8 3.5 4.3 0.00 0.00 0.00 18 1351.3
20260510042746 60 65 1.7 6.1 0.00 0.00 0.00 18 1351.4
20260510042241 60 65 2.6 2.6 0.00 0.00 0.00 18 1351.2
20260510041738 60 38 2.6 3.5 0.00 0.00 0.00 17 1351.6
20260510041230 59 47 2.6 2.6 0.00 0.00 0.00 18 1351.4
20260510040727 61 95 1.7 2.6 0.00 0.00 0.00 17 1351.1
20260510040224 62 350 2.6 3.5 0.00 0.00 0.00 16 1351.2
20260510035719 62 22 2.6 7.8 0.00 0.00 0.00 16 1351.1
20260510035215 61 337 0.9 5.2 0.00 0.00 0.00 15 1350.8
20260510034711 61 297 0.9 2.6 0.00 0.00 0.00 16 1350.8
20260510034210 62 132 0.0 1.7 0.00 0.00 0.00 16 1351.1
20260510033705 62 19 2.6 3.5 0.00 0.00 0.00 16 1350.7
20260510033203 61 21 1.7 3.5 0.00 0.00 0.00 16 1350.8
20260510032659 61 114 0.0 1.7 0.00 0.00 0.00 17 1350.8
20260510032155 62 145 0.9 1.7 0.00 0.00 0.00 17 1350.8
20260510031649 64 6 0.0 3.5 0.00 0.00 0.00 15 1350.6
20260510031146 64 73 1.7 1.7 0.00 0.00 0.00 15 1350.6
20260510030641 64 103 0.9 1.7 0.00 0.00 0.00 15 1350.3
20260510030139 65 309 2.6 4.3 0.00 0.00 0.00 15 1350.3
20260510025636 65 300 3.5 3.5 0.00 0.00 0.00 15 1350.2
20260510025133 65 6 0.9 4.3 0.00 0.00 0.00 15 1350.0
20260510024629 65 284 2.6 5.2 0.00 0.00 0.00 14 1350.0
20260510024126 65 15 1.7 3.5 0.00 0.00 0.00 15 1349.9
20260510023622 66 343 3.5 3.5 0.00 0.00 0.00 14 1349.8
20260510023120 66 242 3.5 7.0 0.00 0.00 0.00 14 1349.9
20260510022619 66 318 4.3 7.0 0.00 0.00 0.00 14 1349.9
20260510022114 67 357 5.2 7.8 0.00 0.00 0.00 14 1349.7
20260510021610 67 295 7.0 12.2 0.00 0.00 0.00 14 1349.7
20260510021108 68 353 14.8 15.6 0.00 0.00 0.00 13 1349.8
20260510020602 67 335 9.6 12.2 0.00 0.00 0.00 13 1349.4
20260510020058 68 69 0.9 4.3 0.00 0.00 0.00 13 1349.4
20260510015554 68 250 9.6 9.6 0.00 0.00 0.00 13 1349.5
20260510015050 68 220 2.6 7.8 0.00 0.00 0.00 13 1349.4
20260510014546 68 262 0.9 9.6 0.00 0.00 0.00 13 1349.4
20260510014044 69 215 3.5 7.8 0.00 0.00 0.00 13 1349.4
20260510013538 69 3 2.6 8.7 0.00 0.00 0.00 13 1349.4
20260510013034 69 348 1.7 3.5 0.00 0.00 0.00 13 1349.2
20260510012528 69 285 0.9 8.7 0.00 0.00 0.00 13 1349.3
20260510012025 69 272 6.1 13.0 0.00 0.00 0.00 13 1349.0
20260510011524 69 12 0.9 18.2 0.00 0.00 0.00 13 1349.0
20260510011020 69 247 6.1 17.4 0.00 0.00 0.00 13 1349.2
20260510010517 69 256 4.3 7.0 0.00 0.00 0.00 12 1349.2
20260510010014 69 264 2.6 8.7 0.00 0.00 0.00 12 1349.0
20260510005510 70 348 1.7 17.4 0.00 0.00 0.00 12 1349.0
20260510005008 70 256 4.3 20.9 0.00 0.00 0.00 12 1348.9
20260510004505 70 313 6.1 15.6 0.00 0.00 0.00 12 1349.0
20260510004003 70 288 13.0 13.9 0.00 0.00 0.00 12 1348.8
20260510003459 71 322 6.1 18.2 0.00 0.00 0.00 12 1349.0
20260510002955 71 291 8.7 11.3 0.00 0.00 0.00 12 1348.9
20260510002451 71 286 7.0 20.9 0.00 0.00 0.00 12 1348.8
20260510001947 72 277 3.5 20.9 0.00 0.00 0.00 12 1348.7
20260510001445 73 303 4.3 13.9 0.00 0.00 0.00 11 1348.9
20260510000943 72 318 7.0 17.4 0.00 0.00 0.00 12 1348.8
20260510000440 72 316 13.0 19.1 0.00 0.00 0.00 12 1348.8
20260509235935 72 237 4.3 13.9 0.00 0.00 0.00 11 1348.8
20260509235432 73 269 9.6 14.8 0.00 0.00 0.00 11 1348.8
20260509234928 73 257 3.5 13.9 0.00 0.00 0.00 11 1348.8
20260509234425 72 219 3.5 13.9 0.00 0.00 0.00 12 1348.7
20260509233923 71 245 5.2 13.0 0.00 0.00 0.00 12 1348.5
20260509233420 72 267 6.1 14.8 0.00 0.00 0.00 12 1348.9
20260509232916 72 283 4.3 17.4 0.00 0.00 0.00 12 1348.8
20260509232414 73 239 2.6 18.2 0.00 0.00 0.00 12 1348.8
20260509231909 76 296 6.1 20.9 0.00 0.00 0.00 11 1348.8
20260509231407 75 289 6.1 13.9 0.00 0.00 0.00 10 1348.9
20260509230905 75 270 7.0 15.6 0.00 0.00 0.00 11 1348.9
20260509230401 73 242 13.9 13.9 0.00 0.00 0.00 11 1348.8
20260509225857 75 261 7.0 17.4 0.00 0.00 0.00 11 1349.0
20260509225354 75 218 5.2 29.5 0.00 0.00 0.00 11 1349.0
20260509224849 75 268 9.6 16.5 0.00 0.00 0.00 12 1348.8
20260509224346 73 302 8.7 18.2 0.00 0.00 0.00 13 1348.8
20260509223843 71 286 2.6 13.9 0.00 0.00 0.00 13 1348.8
20260509223339 71 216 4.3 12.2 0.00 0.00 0.00 13 1349.0
20260509222837 71 21 6.1 20.0 0.00 0.00 0.00 14 1349.8
20260509222332 73 252 4.3 7.0 0.00 0.00 0.00 13 1349.3
20260509221827 73 255 6.1 8.7 0.00 0.00 0.00 13 1349.2
20260509221325 72 276 7.0 13.0 0.00 0.00 0.00 13 1349.4
20260509220825 74 208 11.3 21.7 0.00 0.00 0.00 12 1349.3
20260509220321 77 234 7.8 16.5 0.00 0.00 0.00 12 1348.9
20260509215817 77 272 7.8 17.4 0.00 0.00 0.00 11 1349.2
20260509215314 77 198 7.8 16.5 0.00 0.00 0.00 12 1349.0
20260509214811 76 222 8.7 29.5 0.00 0.00 0.00 12 1349.0
20260509214308 73 266 6.1 18.2 0.00 0.00 0.00 12 1349.7
20260509213805 74 265 3.5 15.6 0.00 0.00 0.00 12 1349.4
20260509213301 73 313 2.6 18.2 0.00 0.00 0.00 12 1349.3
20260509212758 74 348 7.0 14.8 0.00 0.00 0.00 12 1349.5
20260509212255 74 265 3.5 20.0 0.00 0.00 0.00 12 1349.7
20260509211751 75 263 13.9 13.9 0.00 0.00 0.00 12 1349.5
20260509211247 73 299 4.3 16.5 0.00 0.00 0.00 13 1349.8
20260509210744 74 226 6.1 15.6 0.00 0.00 0.00 12 1349.7
20260509210242 75 274 9.6 21.7 0.00 0.00 0.00 13 1350.2
20260509205741 73 88 5.2 19.1 0.00 0.00 0.00 13 1349.8
20260509205236 72 309 6.1 15.6 0.00 0.00 0.00 14 1350.0
20260509204732 74 284 4.3 7.0 0.00 0.00 0.00 13 1350.0